User: anonymous   Login
Location: Cutler
(25.6150°N, 80.3110°W)
Time: 07:07:05
(UTC-04:00)
Language:

Cosmos 2360 Rocket - Orbit

View from above orbital plane
View from above orbital plane
View from above satellite
View from above satellite

Ground track
Ground track

The orbit data is extracted from the following two-line orbital elements,

1 25407U 98045B   17083.86009172 -.00000239 +00000-0 -97213-4 0  9998
2 25407 071.0099 218.6408 0008888 321.6006 038.4483 14.15757005963974
Epoch (UTC): 24 March 2017 20:38:31
Eccentricity: 0.0008888
inclination: 71.0099°
perigee height: 833 km
apogee height: 846 km
right ascension of ascending node: 218.6408°
argument of perigee: 321.6006°
revolutions per day: 14.15757005
mean anomaly at epoch: 38.4483°
orbit number at epoch: 96397

The dashed part of the orbit path shows where the satellite is in the earth's shadow,  

DLR